| time (UTC) | temp F | wind direction | speed MPH | gust MPH | rain 1hr in | rain 24hr in | rain mn in | humidity % | barometer mb |
| 20260503023113 | 59 | 157 | 2.0 | 3.0 | 0.00 | 0.00 | 0.00 | 19 | 1009.7 |
| 20260503021604 | 61 | 148 | 1.0 | 3.0 | 0.00 | 0.00 | 0.00 | 17 | 1009.7 |
| 20260503020058 | 64 | 148 | 0.0 | 5.0 | 0.00 | 0.00 | 0.00 | 17 | 1009.6 |
| 20260503014600 | 66 | 148 | 2.0 | 4.0 | 0.00 | 0.00 | 0.00 | 16 | 1009.6 |
| 20260503013056 | 68 | 138 | 2.0 | 4.0 | 0.00 | 0.00 | 0.00 | 15 | 1009.5 |
| 20260503011603 | 69 | 130 | 1.0 | 4.0 | 0.00 | 0.00 | 0.00 | 14 | 1009.4 |
| 20260503010056 | 69 | 119 | 1.0 | 5.0 | 0.00 | 0.00 | 0.00 | 14 | 1009.4 |
| 20260503004555 | 70 | 115 | 4.0 | 7.0 | 0.00 | 0.00 | 0.00 | 13 | 1009.4 |
| 20260503003054 | 71 | 92 | 2.0 | 8.0 | 0.00 | 0.00 | 0.00 | 12 | 1009.6 |
| 20260503001600 | 70 | 119 | 1.0 | 5.0 | 0.00 | 0.00 | 0.00 | 14 | 1009.6 |
| 20260503000103 | 71 | 115 | 2.0 | 7.0 | 0.00 | 0.00 | 0.00 | 13 | 1009.8 |
| 20260502234552 | 72 | 118 | 4.0 | 9.0 | 0.00 | 0.00 | 0.00 | 14 | 1009.9 |
| 20260502233100 | 73 | 92 | 5.0 | 13.0 | 0.00 | 0.00 | 0.00 | 14 | 1009.9 |
| 20260502231557 | 73 | 187 | 2.0 | 7.0 | 0.00 | 0.00 | 0.00 | 14 | 1010.1 |
| 20260502230040 | 72 | 117 | 1.0 | 10.0 | 0.00 | 0.00 | 0.00 | 14 | 1010.2 |
| 20260502224537 | 72 | 84 | 3.0 | 13.0 | 0.00 | 0.00 | 0.00 | 13 | 1010.3 |
| 20260502223039 | 73 | 124 | 4.0 | 8.0 | 0.00 | 0.00 | 0.00 | 14 | 1010.5 |
| 20260502221533 | 72 | 91 | 3.0 | 13.0 | 0.00 | 0.00 | 0.00 | 14 | 1010.7 |
| 20260502220132 | 73 | 150 | 4.0 | 10.0 | 0.00 | 0.00 | 0.00 | 15 | 1011.0 |
| 20260502214558 | 72 | 118 | 3.0 | 14.0 | 0.00 | 0.00 | 0.00 | 14 | 1011.2 |
| 20260502213052 | 71 | 126 | 3.0 | 9.0 | 0.00 | 0.00 | 0.00 | 15 | 1011.5 |
| 20260502211548 | 71 | 113 | 3.0 | 10.0 | 0.00 | 0.00 | 0.00 | 15 | 1011.8 |
| 20260502210142 | 71 | 101 | 3.0 | 8.0 | 0.00 | 0.00 | 0.00 | 14 | 1012.1 |
| 20260502204549 | 71 | 126 | 3.0 | 9.0 | 0.00 | 0.00 | 0.00 | 16 | 1012.4 |
| 20260502203039 | 71 | 113 | 3.0 | 9.0 | 0.00 | 0.00 | 0.00 | 17 | 1012.7 |
| 20260502201538 | 70 | 66 | 5.0 | 14.0 | 0.00 | 0.00 | 0.00 | 17 | 1012.9 |
| 20260502200135 | 71 | 107 | 2.0 | 13.0 | 0.00 | 0.00 | 0.00 | 17 | 1013.0 |
| 20260502194540 | 71 | 101 | 4.0 | 10.0 | 0.00 | 0.00 | 0.00 | 17 | 1013.2 |
| 20260502193037 | 70 | 159 | 4.0 | 11.0 | 0.00 | 0.00 | 0.00 | 17 | 1013.4 |
| 20260502191537 | 68 | 24 | 1.0 | 14.0 | 0.00 | 0.00 | 0.00 | 18 | 1013.7 |
| 20260502190130 | 68 | 94 | 3.0 | 10.0 | 0.00 | 0.00 | 0.00 | 19 | 1014.0 |
| 20260502184553 | 67 | 78 | 5.0 | 11.0 | 0.00 | 0.00 | 0.00 | 20 | 1014.3 |
| 20260502183049 | 66 | 82 | 4.0 | 9.0 | 0.00 | 0.00 | 0.00 | 19 | 1014.6 |
| 20260502181546 | 66 | 149 | 2.0 | 13.0 | 0.00 | 0.00 | 0.00 | 18 | 1014.9 |
| 20260502170134 | 65 | 36 | 3.0 | 7.0 | 0.00 | 0.00 | 0.00 | 20 | 1015.8 |
| 20260502163055 | 64 | 126 | 5.0 | 9.0 | 0.00 | 0.00 | 0.00 | 21 | 1016.0 |
| 20260502161553 | 62 | 107 | 5.0 | 9.0 | 0.00 | 0.00 | 0.00 | 26 | 1016.1 |
| 20260502160148 | 62 | 71 | 4.0 | 9.0 | 0.00 | 0.00 | 0.00 | 29 | 1016.2 |
| 20260502151550 | 58 | 154 | 4.0 | 7.0 | 0.00 | 0.00 | 0.00 | 33 | 1016.6 |
| 20260502150141 | 56 | 146 | 3.0 | 7.0 | 0.00 | 0.00 | 0.00 | 37 | 1016.8 |
| 20260502123032 | 36 | 274 | 0.0 | 3.0 | 0.00 | 0.00 | 0.00 | 60 | 1017.2 |
| 20260502121542 | 34 | 343 | 1.0 | 2.0 | 0.00 | 0.00 | 0.00 | 60 | 1017.0 |
| 20260502114527 | 34 | 343 | 0.0 | 2.0 | 0.00 | 0.00 | 0.00 | 60 | 1017.1 |
| 20260502113024 | 35 | 343 | 0.0 | 2.0 | 0.00 | 0.00 | 0.00 | 58 | 1017.2 |
| 20260502111522 | 36 | 343 | 0.0 | 2.0 | 0.00 | 0.00 | 0.00 | 56 | 1017.1 |
| 20260502110022 | 36 | 343 | 0.0 | 2.0 | 0.00 | 0.00 | 0.00 | 57 | 1017.2 |
| 20260502104537 | 36 | 343 | 1.0 | 3.0 | 0.00 | 0.00 | 0.00 | 56 | 1017.1 |
| 20260502103021 | 36 | 343 | 2.0 | 3.0 | 0.00 | 0.00 | 0.00 | 55 | 1017.2 |
| 20260502101514 | 37 | 343 | 0.0 | 0.0 | 0.00 | 0.00 | 0.00 | 54 | 1017.1 |
| 20260502091511 | 39 | 343 | 3.0 | 6.0 | 0.00 | 0.00 | 0.00 | 52 | 1016.8 |
| 20260502070041 | 47 | 271 | 7.0 | 10.0 | 0.00 | 0.00 | 0.00 | 39 | 1017.2 |
| 20260502064544 | 47 | 272 | 4.0 | 7.0 | 0.00 | 0.00 | 0.00 | 39 | 1017.1 |
| 20260502063036 | 47 | 267 | 3.0 | 8.0 | 0.00 | 0.00 | 0.00 | 39 | 1017.2 |
| 20260502061534 | 47 | 267 | 5.0 | 9.0 | 0.00 | 0.00 | 0.00 | 39 | 1017.3 |
| 20260502060034 | 47 | 273 | 7.0 | 11.0 | 0.00 | 0.00 | 0.00 | 39 | 1017.2 |
| 20260502054532 | 47 | 263 | 5.0 | 11.0 | 0.00 | 0.00 | 0.00 | 40 | 1017.1 |
| 20260502053030 | 46 | 269 | 4.0 | 6.0 | 0.00 | 0.00 | 0.00 | 39 | 1017.0 |
| 20260502051548 | 46 | 259 | 3.0 | 6.0 | 0.00 | 0.00 | 0.00 | 38 | 1017.1 |
| 20260502050030 | 46 | 35 | 2.0 | 4.0 | 0.00 | 0.00 | 0.00 | 38 | 1017.0 |
| 20260502044529 | 47 | 35 | 0.0 | 1.0 | 0.00 | 0.00 | 0.00 | 38 | 1016.9 |
| 20260502043028 | 47 | 35 | 0.0 | 5.0 | 0.00 | 0.00 | 0.00 | 37 | 1017.0 |
| 20260502041529 | 48 | 35 | 4.0 | 5.0 | 0.00 | 0.00 | 0.00 | 36 | 1016.8 |
| 20260502040028 | 48 | 35 | 0.0 | 3.0 | 0.00 | 0.00 | 0.00 | 36 | 1016.6 |
| 20260502034537 | 50 | 35 | 1.0 | 2.0 | 0.00 | 0.00 | 0.00 | 35 | 1016.5 |
| 20260502033033 | 51 | 35 | 2.0 | 5.0 | 0.00 | 0.00 | 0.00 | 33 | 1016.3 |
| 20260502031525 | 51 | 35 | 4.0 | 6.0 | 0.00 | 0.00 | 0.00 | 33 | 1015.9 |
| 20260502030026 | 51 | 35 | 4.0 | 5.0 | 0.00 | 0.00 | 0.00 | 32 | 1015.8 |
| 20260502024530 | 51 | 35 | 3.0 | 5.0 | 0.00 | 0.00 | 0.00 | 33 | 1015.5 |